Weather History for Monroe, WI

Change the Weather History Date:

Wednesday, January 1, 2014

  Actual Average Record
Temperature  
Mean Temperature 4 °F -  
Max Temperature 9 °F 0 °F 41 °F (2007)
Min Temperature 0 °F - 0 °F (2014)
Degree Days  
Heating Degree Days 60    
Moisture  
Dew Point 0 °F    
Average Humidity 78    
Maximum Humidity 96    
Minimum Humidity 65    
Precipitation  
Precipitation 0.01 in - - ()
Sea Level Pressure  
Sea Level Pressure 30.25 in    
Wind  
Wind Speed 15 mph (NNE)    
Max Wind Speed 18 mph    
Max Gust Speed 23 mph    
Visibility 8 miles    
Events Snow    
Averages and records for this station are not official NWS values.
T = Trace of Precipitation, MM = Missing Value Source: NWS Daily Summary

Daily Weather History Graph

Daily Weather History Graph

Search for Another Location

Airport:

Trip Planner

Search our weather history database for the weather conditions in past years. The results will help you decide how hot, cold, wet, or windy it might be!

Date:

Astronomy

Jan. 01, 2014 Rise Set
Actual Time 7:28 AM CST 4:35 PM CST
Civil Twilight 6:56 AM CST 5:07 PM CST
Nautical Twilight 6:21 AM CST 5:43 PM CST
Astronomical Twilight 5:46 AM CST 6:17 PM CST
Moon 7:17 AM CST (1/1) 5:22 PM CST (1/1)
Length of Visible Light 10h 11m
Length of Day
9h 07m
Waxing Crescent, 0% of the Moon is Illuminated
Jan 1
Waxing Crescent
Jan 7
First Quarter
Jan 15
Full
Jan 23
Last Quarter
Jan 30
New

Hourly Weather History & Observations

Time (CST) Temp. Windchill Dew Point Humidity Pressure Visibility Wind Dir Wind Speed Gust Speed Precip Events Conditions
12:15 AM 5.9 °F -11.2 °F 0.5 °F 78% 30.25 in 10.0 mi NNE 13.8 mph - N/A   Overcast
12:35 AM 5.9 °F -13.0 °F 0.3 °F 78% 30.25 in 10.0 mi NNE 17.3 mph - N/A   Overcast
12:55 AM 5.9 °F -11.8 °F -0.6 °F 75% 30.24 in 10.0 mi NE 15.0 mph - N/A   Overcast
1:15 AM 5.7 °F -12.6 °F -0.6 °F 75% 30.24 in 10.0 mi NNE 16.1 mph 21.9 mph N/A   Overcast
1:35 AM 5.5 °F -13.5 °F -0.8 °F 75% 30.23 in 10.0 mi NNE 17.3 mph - N/A   Overcast
2:00 AM 4.8 °F -13.8 °F -2.4 °F 72% 30.24 in 10.0 mi NNE 16.1 mph - N/A   Overcast
2:15 AM 4.1 °F -15.9 °F -3.1 °F 72% 30.24 in 10.0 mi NE 18.4 mph - N/A   Overcast
2:35 AM 3.6 °F -16.0 °F -3.8 °F 71% 30.25 in 10.0 mi NE 17.3 mph - N/A   Overcast
2:55 AM 3.0 °F -14.8 °F -5.8 °F 67% 30.25 in 10.0 mi NE 13.8 mph - N/A   Overcast
3:15 AM 2.3 °F -15.0 °F -5.8 °F 69% 30.26 in 10.0 mi NNE 12.7 mph - N/A   Overcast
3:35 AM 2.3 °F -15.7 °F -6.0 °F 68% 30.26 in 10.0 mi NE 13.8 mph - N/A   Overcast
3:55 AM 2.1 °F -16.0 °F -6.2 °F 68% 30.25 in 10.0 mi NE 13.8 mph 18.4 mph N/A   Overcast
4:15 AM 1.8 °F -15.7 °F -6.7 °F 68% 30.26 in 10.0 mi NNE 12.7 mph - N/A   Overcast
4:35 AM 1.9 °F -16.2 °F -6.7 °F 67% 30.25 in 10.0 mi NNE 13.8 mph - N/A   Overcast
4:55 AM 1.8 °F -15.7 °F -7.4 °F 65% 30.26 in 10.0 mi NNE 12.7 mph - N/A   Overcast
5:15 AM 1.9 °F -15.5 °F -7.4 °F 65% 30.26 in 10.0 mi NNE 12.7 mph - N/A   Overcast
5:35 AM 1.6 °F -17.3 °F -7.6 °F 65% 30.25 in 10.0 mi NNE 15.0 mph - N/A   Overcast
5:55 AM 1.4 °F -16.9 °F -6.5 °F 69% 30.25 in 10.0 mi NNE 13.8 mph - N/A Snow Light Snow
6:15 AM 1.2 °F -17.8 °F -5.8 °F 72% 30.25 in 10.0 mi NNE 15.0 mph - N/A Snow Light Snow
6:35 AM 0.7 °F -17.8 °F -4.9 °F 77% 30.25 in 3.0 mi NNE 13.8 mph - N/A Snow Light Snow
6:55 AM 0.5 °F -18.7 °F -4.4 °F 80% 30.25 in 5.0 mi NNE 15.0 mph - N/A Snow Light Snow
7:15 AM 0.5 °F -17.3 °F -2.7 °F 86% 30.26 in 4.0 mi NNE 12.7 mph - N/A Snow Light Snow
7:35 AM 0.7 °F -16.2 °F -0.4 °F 95% 30.27 in 2.0 mi North 11.5 mph - N/A Snow Light Snow
7:55 AM 1.4 °F -16.9 °F 0.5 °F 96% 30.27 in 1.8 mi North 13.8 mph - N/A Snow Light Snow
8:15 AM 1.2 °F -17.8 °F 0.3 °F 96% 30.27 in 1.2 mi North 15.0 mph - N/A Snow Light Snow
8:35 AM 1.8 °F -16.4 °F 0.9 °F 96% 30.27 in 1.8 mi NNE 13.8 mph - N/A Snow Light Snow
8:55 AM 2.3 °F -15.7 °F 1.4 °F 96% 30.27 in 2.0 mi NNE 13.8 mph - N/A Snow Light Snow
9:15 AM 3.2 °F -15.3 °F 2.3 °F 96% 30.27 in 3.0 mi NNE 15.0 mph - N/A Snow Light Snow
9:35 AM 3.9 °F -15.0 °F 3.0 °F 96% 30.27 in 4.0 mi NNE 16.1 mph - N/A   Overcast
9:55 AM 5.0 °F -13.6 °F 3.7 °F 95% 30.27 in 4.0 mi NNE 16.1 mph - N/A Snow Light Snow
10:15 AM 5.9 °F -12.4 °F 4.8 °F 95% 30.27 in 3.0 mi NNE 16.1 mph - N/A Snow Light Snow
10:35 AM 6.3 °F -11.3 °F 5.0 °F 95% 30.27 in 5.0 mi NNE 15.0 mph - N/A Snow Light Snow
10:55 AM 6.1 °F -12.8 °F 4.6 °F 94% 30.27 in 2.5 mi NNE 17.3 mph - N/A Snow Light Snow
11:15 AM 6.3 °F -12.0 °F 4.6 °F 93% 30.26 in 3.0 mi NNE 16.1 mph - N/A Snow Light Snow
11:35 AM 6.3 °F -12.5 °F 4.5 °F 92% 30.25 in 5.0 mi NNE 17.3 mph - N/A   Overcast
11:55 AM 6.8 °F -10.0 °F 4.8 °F 92% 30.25 in 10.0 mi NNE 13.8 mph - N/A   Overcast
12:15 PM 7.3 °F -7.9 °F 5.2 °F 91% 30.25 in 10.0 mi NNE 11.5 mph - N/A   Mostly Cloudy
12:35 PM 8.1 °F -8.4 °F 5.0 °F 87% 30.25 in 10.0 mi NNE 13.8 mph - N/A   Overcast
12:55 PM 8.6 °F -7.7 °F 6.3 °F 90% 30.23 in 7.0 mi NNE 13.8 mph - N/A   Overcast
1:15 PM 9.3 °F -8.0 °F 5.2 °F 83% 30.23 in 10.0 mi NNE 16.1 mph - N/A   Scattered Clouds
1:35 PM 9.5 °F -7.2 °F 3.7 °F 77% 30.22 in 10.0 mi NNE 15.0 mph 19.6 mph N/A   Clear
1:55 PM 9.5 °F -7.8 °F 3.2 °F 76% 30.22 in 10.0 mi NNE 16.1 mph - N/A   Clear
2:15 PM 9.5 °F -7.2 °F 3.0 °F 75% 30.21 in 10.0 mi NNE 15.0 mph - N/A   Clear
2:35 PM 9.5 °F -5.2 °F 2.5 °F 73% 30.22 in 10.0 mi NNE 11.5 mph - N/A   Scattered Clouds
2:55 PM 9.5 °F -6.6 °F 2.7 °F 74% 30.22 in 10.0 mi NNE 13.8 mph - N/A   Mostly Cloudy
3:15 PM 8.8 °F -8.1 °F 2.3 °F 75% 30.22 in 10.0 mi NNE 15.0 mph - N/A   Overcast
3:35 PM 8.6 °F -7.7 °F 2.3 °F 76% 30.23 in 10.0 mi NNE 13.8 mph - N/A   Overcast
3:55 PM 8.4 °F -9.7 °F 2.1 °F 76% 30.23 in 10.0 mi NNE 17.3 mph - N/A   Overcast
4:15 PM 8.4 °F -6.5 °F 2.1 °F 76% 30.23 in 10.0 mi NNE 11.5 mph - N/A   Mostly Cloudy
4:40 PM 7.7 °F -8.9 °F 1.4 °F 75% 30.23 in 10.0 mi NNE 13.8 mph - N/A   Mostly Cloudy
4:55 PM 7.3 °F -8.6 °F 1.2 °F 76% 30.23 in 10.0 mi North 12.7 mph - N/A   Scattered Clouds
5:15 PM 6.8 °F -10.7 °F 0.5 °F 75% 30.24 in 10.0 mi NNE 15.0 mph - N/A   Scattered Clouds
5:35 PM 6.6 °F -10.2 °F 0.5 °F 76% 30.24 in 10.0 mi NNE 13.8 mph 19.6 mph N/A   Clear
5:55 PM 6.4 °F -12.3 °F 0.5 °F 77% 30.24 in 10.0 mi NNE 17.3 mph - N/A   Mostly Cloudy
6:20 PM 5.9 °F -12.4 °F 0.1 °F 77% 30.24 in 10.0 mi North 16.1 mph - N/A   Mostly Cloudy
6:35 PM 5.7 °F -10.7 °F -0.0 °F 77% 30.25 in 10.0 mi North 12.7 mph 20.7 mph N/A   Scattered Clouds
6:55 PM 6.6 °F -12.1 °F 0.7 °F 77% 30.25 in 10.0 mi North 17.3 mph 23.0 mph N/A   Mostly Cloudy
7:15 PM 6.8 °F -11.3 °F 1.0 °F 77% 30.25 in 10.0 mi North 16.1 mph 23.0 mph N/A Snow Light Snow
7:35 PM 6.8 °F -11.3 °F 0.9 °F 77% 30.26 in 10.0 mi North 16.1 mph 21.9 mph N/A   Overcast
7:55 PM 7.2 °F -10.2 °F 0.9 °F 75% 30.25 in 10.0 mi North 15.0 mph 23.0 mph N/A   Overcast
8:15 PM 6.8 °F -11.3 °F 0.5 °F 75% 30.25 in 10.0 mi North 16.1 mph 23.0 mph N/A   Overcast
8:35 PM 6.6 °F -10.2 °F -0.0 °F 74% 30.25 in 10.0 mi North 13.8 mph 20.7 mph N/A Snow Light Snow
8:55 PM 6.4 °F -9.8 °F -0.4 °F 74% 30.25 in 10.0 mi North 12.7 mph - N/A   Overcast
9:15 PM 6.6 °F -9.5 °F -0.4 °F 73% 30.24 in 10.0 mi North 12.7 mph - N/A   Overcast
9:35 PM 6.8 °F -7.8 °F -0.4 °F 72% 30.24 in 10.0 mi NNE 10.4 mph - N/A   Overcast
9:55 PM 6.8 °F -8.6 °F -0.4 °F 72% 30.24 in 10.0 mi North 11.5 mph - N/A   Overcast
10:15 PM 6.8 °F -6.9 °F -0.2 °F 73% 30.24 in 10.0 mi North 9.2 mph - N/A   Overcast
10:35 PM 6.8 °F -5.9 °F -0.6 °F 72% 30.24 in 10.0 mi North 8.1 mph - N/A   Overcast
10:55 PM 7.2 °F -6.4 °F -1.3 °F 68% 30.24 in 10.0 mi North 9.2 mph - N/A   Overcast
11:15 PM 7.0 °F -8.3 °F -1.5 °F 68% 30.23 in 10.0 mi North 11.5 mph - N/A   Overcast
11:35 PM 6.8 °F -9.3 °F -1.5 °F 69% 30.22 in 10.0 mi North 12.7 mph 18.4 mph N/A   Overcast
11:55 PM 6.8 °F -9.3 °F -1.5 °F 69% 30.22 in 10.0 mi North 12.7 mph 18.4 mph N/A   Overcast